Location: Unspecified
(0.0000°N, 0.0000°E)
Time: 05:55:40
(UTC+00:00)

DX 1 - Pass Details

Date: 09 July 2020
Orbit: 619 x 630 km, 98.5° (Epoch: 13 August)

Event Time Altitude Azimuth Distance (km) Brightness Sun altitude
Rises 18:27:03 0° 337° (NNW) 2,890 ? -5.0°
Reaches altitude 10° 18:30:25 10° 309° (NW) 1,991 ? -5.8°
Maximum altitude 18:32:18 13° 282° (WNW) 1,821 ? -6.2°
Drops below altitude 10° 18:34:11 10° 256° (WSW) 1,998 ? -6.7°
Sets 18:37:36 0° 228° (SW) 2,911 ? -7.4°
